Starlink 32003

operational
NORAD ID: 60097 Int'l Des: 2024-117 Owner: SPXS Country: US Constellation: starlink
LEOCIRCULAR

关于 Starlink 32003

正在加载描述...

实时位置

正在加载3D地球...

即将过境

高度历史

Altitude vs Time

uPlot chart will show altitude changes over time

两行轨道根数

1 60097U 24117G 25304.66283661 -.00001030 00000-0 -22666-4 0 9991
2 60097 53.1598 276.3146 0001276 84.1238 275.9908 15.30188664 77136
Epoch: Oct 31, 2025 • Age: 28 hours

当前状态

高度 490.4 km
速度 7.62 km/s
星下点 -42.91°S, 159.57°E
发射日期 Jun 23, 2024
运行时间 1.3 years
类型 internet

技术详情

分类 Payload
质量 730.00 kg
干质量 700.00 kg
总质量 730.00 kg
长度 0.30 m
直径 4.10 m
跨度 29.00 m
形状 Box + pan
制造商 SPXS
平台类型 Starlink V2M
阶段状态 In Orbit
所有者/国家 SPXS/US

大型星座

Loading constellations...